Hondo, TX

10:45 AM CST on November 18, 2017 (GMT -0600)
Hondo Municipal

Weather History for KHDO - January, 2014

Change the Weather History Date:

Monday, January 27, 2014

  Actual Average Record
Temperature  
Mean Temperature 52 °F -  
Max Temperature 61 °F 62 °F 80 °F (2013)
Min Temperature 43 °F 39 °F 28 °F (2004)
Degree Days  
Heating Degree Days 12    
Growing Degree Days 2 (Base 50)    
Moisture  
Dew Point 23 °F    
Average Humidity 38    
Maximum Humidity 66    
Minimum Humidity 24    
Precipitation  
Precipitation 0.00 in - - ()
Sea Level Pressure  
Sea Level Pressure 30.03 in    
Wind  
Wind Speed 12 mph (NNE)    
Max Wind Speed 26 mph    
Max Gust Speed 37 mph    
Visibility 10 miles    
Events      
Averages and records for this station are not official NWS values.
T = Trace of Precipitation, MM = Missing Value Source: NWS Daily Summary

Daily Weather History Graph

Daily Weather History Graph

Search for Another Location

Airport or City:

Trip Planner

Search our weather history database for the weather conditions in past years. The results will help you decide how hot, cold, wet, or windy it might be!

Date:

Astronomy

Jan. 27, 2014 Rise Set
Actual Time 7:28 AM CST 6:10 PM CST
Civil Twilight 7:03 AM CST 6:35 PM CST
Nautical Twilight 6:34 AM CST 7:04 PM CST
Astronomical Twilight 6:06 AM CST 7:32 PM CST
Moon 4:08 AM CST (1/27) 3:01 PM CST (1/27)
Length of Visible Light 11h 32m
Length of Day
10h 42m
Waning Crescent, 14% of the Moon is Illuminated
Jan 27
Waning Crescent
Jan 30
New
Feb 6
First Quarter
Feb 14
Full
Feb 22
Last Quarter

Hourly Weather History & Observations

Time (CST) Temp. Windchill Dew Point Humidity Pressure Visibility Wind Dir Wind Speed Gust Speed Precip Events Conditions
12:51 AM 48.9 °F - 35.1 °F 59% 29.81 in 10.0 mi North 6.9 mph - N/A   Clear
1:51 AM 48.0 °F - 37.0 °F 66% 29.83 in 10.0 mi East 3.5 mph - N/A   Clear
2:51 AM 45.0 °F 41.2 °F 34.0 °F 65% 29.82 in 10.0 mi NNE 6.9 mph - N/A   Clear
3:51 AM 45.0 °F 40.6 °F 34.0 °F 65% 29.83 in 10.0 mi North 8.1 mph - N/A   Clear
4:51 AM 46.0 °F 41.9 °F 33.1 °F 61% 29.83 in 10.0 mi North 8.1 mph - N/A   Clear
5:51 AM 44.1 °F 40.1 °F 28.0 °F 53% 29.86 in 10.0 mi NNE 6.9 mph - N/A   Clear
6:51 AM 44.1 °F 39.0 °F 26.1 °F 49% 29.91 in 10.0 mi North 9.2 mph - N/A   Clear
7:51 AM 55.0 °F - 26.1 °F 33% 29.95 in 10.0 mi NNE 17.3 mph - N/A   Clear
8:51 AM 57.9 °F - 27.0 °F 31% 29.99 in 10.0 mi NNE 23.0 mph 36.8 mph N/A   Clear
9:51 AM 59.0 °F - 30.0 °F 33% 30.06 in 10.0 mi NNE 25.3 mph 32.2 mph N/A   Clear
10:51 AM 61.0 °F - 30.9 °F 32% 30.08 in 10.0 mi NNE 26.5 mph 34.5 mph N/A   Clear
11:51 AM 60.1 °F - 30.0 °F 32% 30.08 in 10.0 mi North 25.3 mph 35.7 mph N/A   Clear
12:51 PM 55.0 °F - 28.0 °F 35% 30.08 in 10.0 mi NNE 18.4 mph 28.8 mph N/A   Clear
1:51 PM 55.9 °F - 25.0 °F 30% 30.09 in 10.0 mi North 23.0 mph - N/A   Clear
2:51 PM 53.1 °F - 21.0 °F 29% 30.09 in 10.0 mi North 19.6 mph 26.5 mph N/A   Clear
3:51 PM 50.0 °F - 18.0 °F 28% 30.10 in 10.0 mi North 18.4 mph - N/A   Clear
4:51 PM 50.0 °F - 14.0 °F 24% 30.11 in 10.0 mi NNE 20.7 mph - N/A   Clear
5:51 PM 46.9 °F - 12.9 °F 25% 30.14 in 10.0 mi NNE 12.7 mph - N/A   Clear
6:51 PM 46.0 °F 40.2 °F 14.0 °F 28% 30.16 in 10.0 mi NNE 12.7 mph - N/A   Clear
7:51 PM 45.0 °F 37.9 °F 10.9 °F 25% 30.17 in 10.0 mi NNE 16.1 mph - 0.00 in   Partly Cloudy
8:51 PM 45.0 °F 38.5 °F 10.9 °F 25% 30.19 in 10.0 mi NE 13.8 mph - N/A   Clear
9:51 PM 44.1 °F 39.0 °F 12.0 °F 27% 30.18 in 10.0 mi NE 9.2 mph - N/A   Clear
10:51 PM 45.0 °F 38.9 °F 12.0 °F 26% 30.20 in 10.0 mi NE 12.7 mph - N/A   Partly Cloudy
11:51 PM 43.0 °F 36.4 °F 12.0 °F 28% 30.21 in 10.0 mi NNE 12.7 mph - N/A   Scattered Clouds